Regional Weather Roundup
Issued by NWS Albany, NY

Home | Current Version | Previous Version | Text Only | Print | Product List | Glossary On
Versions: 1 2 3 4 5 6 7 8 9 10 11 12 13 14 15 16 17 18 19 20 21 22 23 24 25 26 27 28 29 30 31 32 33 34 35 36 37 38 39 40 41 42 43 44 45 46 47 48 49 50
000
ASUS41 KALY 011610
RWRALY

NEW YORK STATE HOURLY WEATHER ROUNDUP
NATIONAL WEATHER SERVICE ALBANY NY
1100 AM EST SUN MAR 01 2015

NOTE: "FAIR" INDICATES FEW OR NO CLOUDS BELOW 12,000 FEET WITH NO
SIGNIFICANT WEATHER AND/OR NO OBSTRUCTIONS TO VISIBILITY.

NYZ032-033-038>043-046>054-057>066-NYZ062>081-011700-
EAST


CITY           SKY/WX    TMP DP  RH WIND       PRES   REMARKS
ALBANY         LGT SNOW  18  10  71 S12       30.54F WCI   5
GLENS FALLS    CLOUDY    15   5  64 S6        30.54F HAZE    WCI   6
POUGHKEEPSIE   SNOW      20  15  81 CALM      30.59F VSB 1/2
NEWBURGH       LGT SNOW  19  18  93 CALM      30.58F VSB 1
MONTGOMERY     SNOW      18  14  84 CALM      30.57F VSB 1/2
WHITE PLAINS   PTSUNNY   25   8  48 SE5       30.56F WCI  19
ISLIP          CLOUDY    29  14  53 S7        30.59F WCI  22
NEW YORK CITY  CLOUDY    30   5  34 S12       30.60F WCI  20
CENTRAL PARK   CLOUDY    30   2  30 S7        30.62F WCI  23
$$

NYZ005>009-017-018-044>046-055-056-011700-
CENTRAL


CITY           SKY/WX    TMP DP  RH WIND       PRES   REMARKS
FULTON         CLOUDY    21  14  74 VRB5      30.40F WCI  15
SYRACUSE       FLURRIES  19  15  84 S7        30.41F WCI  10
ROME           LGT SNOW  19  14  81 SE10      30.46F WCI   7
ELMIRA         LGT SNOW  21  16  81 E3        30.40F
BINGHAMTON     LGT SNOW  19  15  84 S8        30.37F FOG     WCI   9
MONTICELLO     CLOUDY    18  14  86 S6        30.48F VSB 3/4 WCI   9
$$

NYZ026>034-041>043-011700-
NORTH


CITY           SKY/WX    TMP DP  RH WIND       PRES   REMARKS
WATERTOWN      CLOUDY    27  17  66 S8        30.40F WCI  19
FORT DRUM      NOT AVBL
MASSENA        CLOUDY    26   4  38 NE5       30.43F WCI  20
SARANAC LAKE   CLOUDY    20   7  57 S13       30.32F WCI   7
PLATTSBURGH    MIX PCPN  16   7  67 S9        30.47F WCI   4
$$

NYZ001>004-010>016-019>021-011700-
WEST


CITY           SKY/WX    TMP DP  RH WIND       PRES   REMARKS
NIAGARA FALLS  LGT SNOW  22  18  85 SW6       30.36F WCI  14
BUFFALO        LGT SNOW  23  18  81 W7        30.35F WCI  15
DUNKIRK        CLOUDY    27  20  75 SW3       30.35F
JAMESTOWN      CLOUDY    25  19  80 S7        30.28F WCI  17
WELLSVILLE     CLOUDY    22  17  81 S6        30.29S WCI  14
ROCHESTER      FLURRIES  24  17  74 SW9       30.38F WCI  14
PENN YAN       LGT SNOW  22  15  75 S14       30.37F WCI   9
$$

             KEY
       WCI = WIND CHILL INDEX
       VSB = VISIBILITY
       HX  = HEAT INDEX
$$



USA.gov is the U.S. government's official web portal to all federal, state and local government web resources and services.